FW3958 Weather Reports


time (UTC)temp
C
wind
direction
speed
KPH
gust
KPH
rain 1hr
cm
rain 24hr
cm
rain mn
cm
humidity
%
barometer
mb
20260504081538 11 195 6.4 12.9 0.00 0.00 0.00 98 1012.7
20260504050017 15 60 0.0 0.0 0.00 0.00 0.00 84 1011.0
20260504044517 16 60 0.0 0.0 0.00 0.00 0.00 82 1010.9
20260504043020 16 60 0.0 0.0 0.00 0.00 0.00 80 1010.9
20260504041517 17 60 0.0 0.0 0.00 0.00 0.00 76 1010.7
20260504040018 18 60 0.0 0.0 0.00 0.00 0.00 73 1010.7
20260504034516 18 60 0.0 0.0 0.00 0.00 0.00 70 1010.6
20260504033015 20 62 0.0 0.0 0.00 0.00 0.00 64 1010.3
20260504031516 21 69 0.0 6.4 0.00 0.00 0.00 59 1010.2
20260504030014 22 33 3.2 12.9 0.00 0.00 0.00 55 1010.0
20260504024514 23 22 8.0 17.7 0.00 0.00 0.00 55 1009.9
20260504023016 23 328 6.4 14.5 0.00 0.00 0.00 53 1010.0
20260504021516 23 322 8.0 19.3 0.00 0.00 0.00 56 1010.0
20260504020010 23 349 8.0 16.1 0.00 0.00 0.00 56 1010.0
20260504014509 24 9 6.4 22.5 0.00 0.00 0.00 56 1009.9
20260504013009 24 38 9.7 20.9 0.00 0.00 0.00 56 1010.1
20260504011506 25 9 9.7 25.7 0.00 0.00 0.00 56 1010.2
20260504010004 25 335 12.9 22.5 0.00 0.00 0.00 58 1010.2
20260504004502 26 326 9.7 20.9 0.00 0.00 0.00 56 1010.2
20260504003001 26 14 8.0 17.7 0.00 0.00 0.00 55 1010.2
20260504001600 26 33 9.7 16.1 0.00 0.00 0.00 56 1010.3
20260504000138 26 31 9.7 24.1 0.00 0.00 0.00 54 1010.5
20260503234600 26 1 17.7 27.4 0.00 0.00 0.00 53 1010.5
20260503233054 28 12 14.5 24.1 0.00 0.00 0.00 51 1010.4
20260503231550 29 9 3.2 20.9 0.00 0.00 0.00 50 1010.7
20260503230050 28 318 6.4 19.3 0.00 0.00 0.00 47 1010.7
20260503224546 28 349 6.4 24.1 0.00 0.00 0.00 50 1010.9
20260503223045 27 360 9.7 19.3 0.00 0.00 0.00 54 1011.1
20260503221550 28 313 9.7 24.1 0.00 0.00 0.00 50 1011.1
20260503220041 28 2 3.2 16.1 0.00 0.00 0.00 47 1011.3
20260503214543 28 5 8.0 16.1 0.00 0.00 0.00 50 1011.4
20260503213037 28 298 6.4 17.7 0.00 0.00 0.00 52 1011.4
20260503211538 28 334 3.2 14.5 0.00 0.00 0.00 56 1011.5
20260503210034 27 309 4.8 16.1 0.00 0.00 0.00 57 1011.6
20260503204534 27 319 4.8 16.1 0.00 0.00 0.00 57 1011.7
20260503203040 27 313 11.3 17.7 0.00 0.00 0.00 56 1011.9
20260503201535 28 306 1.6 12.9 0.00 0.00 0.00 60 1012.1
20260503200027 29 49 1.6 17.7 0.00 0.00 0.00 43 1012.1
20260503194525 28 59 0.0 17.7 0.00 0.00 0.00 45 1012.3
20260503193022 28 116 8.0 19.3 0.00 0.00 0.00 45 1012.5
20260503191518 28 21 0.0 8.0 0.00 0.00 0.00 51 1012.7
20260503190017 27 59 1.6 17.7 0.00 0.00 0.00 47 1012.8
20260503184512 27 66 1.6 16.1 0.00 0.00 0.00 51 1013.0
20260503183009 26 95 6.4 20.9 0.00 0.00 0.00 52 1013.2
20260503181506 26 24 0.0 12.9 0.00 0.00 0.00 53 1013.2
20260503180002 25 53 3.2 17.7 0.00 0.00 0.00 53 1013.3
20260503174600 25 347 6.4 16.1 0.00 0.00 0.00 54 1013.3
20260503173101 25 72 0.0 14.5 0.00 0.00 0.00 57 1013.5
20260503171559 23 108 1.6 12.9 0.00 0.00 0.00 58 1013.6